GW5357 Weather Reports


Display with metric or nautical units.
time (UTC)temp
F
wind
direction
speed
MPH
gust
MPH
rain 1hr
in
rain 24hr
in
rain mn
in
humidity
%
barometer
mb
20260503030006 65 1 1.0 2.0 0.00 0.01 0.01 66 1013.8
20260503025506 65 108 0.0 1.0 0.00 0.01 0.01 65 1013.6
20260503025004 66 314 0.0 1.0 0.00 0.01 0.01 64 1013.7
20260503024505 66 223 1.0 2.0 0.00 0.01 0.01 62 1013.7
20260503024006 67 314 1.0 3.0 0.00 0.01 0.01 60 1013.6
20260503023005 69 108 1.0 2.0 0.00 0.01 0.01 60 1013.7
20260503022505 69 124 1.0 2.0 0.00 0.01 0.01 58 1013.6
20260503022005 69 1 0.0 2.0 0.00 0.01 0.01 60 1013.6
20260503021505 69 1 0.0 2.0 0.00 0.01 0.01 59 1013.6
20260503021005 69 303 1.0 2.0 0.00 0.01 0.01 59 1013.7
20260503020504 69 269 1.0 2.0 0.00 0.01 0.01 60 1013.7
20260503020007 69 206 1.0 3.0 0.00 0.01 0.01 59 1013.7
20260503015505 69 135 1.0 2.0 0.00 0.01 0.01 59 1013.8
20260503015005 69 286 1.0 4.0 0.00 0.01 0.01 59 1013.9
20260503014504 69 283 2.0 4.0 0.00 0.01 0.01 59 1013.9
20260503014005 69 145 2.0 3.0 0.00 0.01 0.01 58 1013.9
20260503013504 69 117 1.0 4.0 0.00 0.01 0.01 59 1013.9
20260503013005 69 117 1.0 4.0 0.00 0.01 0.01 59 1013.9
20260503012506 70 89 2.0 4.0 0.00 0.01 0.01 58 1014.0
20260503012005 70 283 2.0 5.0 0.00 0.01 0.01 57 1014.1
20260503011506 70 121 3.0 5.0 0.00 0.01 0.01 56 1014.1
20260503011006 71 131 2.0 4.0 0.00 0.01 0.01 56 1014.1
20260503010504 71 300 1.0 4.0 0.00 0.01 0.01 58 1014.1
20260503005503 71 131 2.0 5.0 0.00 0.01 0.01 59 1014.2
20260503005005 70 46 2.0 6.0 0.00 0.01 0.01 58 1014.2
20260503004505 71 303 3.0 6.0 0.00 0.01 0.01 57 1014.3
20260503004005 71 138 2.0 5.0 0.00 0.01 0.01 58 1014.3
20260503003504 71 63 2.0 4.0 0.00 0.01 0.01 57 1014.3
20260503003005 72 296 2.0 4.0 0.00 0.01 0.01 57 1014.3
20260503002504 72 269 2.0 4.0 0.00 0.01 0.01 59 1014.3
20260503002005 72 283 1.0 5.0 0.00 0.01 0.01 61 1014.3
20260503001504 72 186 2.0 5.0 0.00 0.01 0.01 58 1014.4
20260503001004 72 187 2.0 5.0 0.00 0.01 0.01 57 1014.4
20260503000504 72 237 3.0 5.0 0.00 0.01 0.01 57 1014.5
20260503000008 72 197 2.0 4.0 0.00 0.01 0.01 58 1014.4
20260502235504 73 241 2.0 6.0 0.00 0.01 0.01 58 1014.5
20260502235005 72 178 1.0 6.0 0.00 0.01 0.01 58 1014.4
20260502234505 73 216 3.0 7.0 0.00 0.01 0.01 59 1014.5
20260502234004 73 76 3.0 7.0 0.00 0.01 0.01 57 1014.6
20260502233505 73 1 2.0 4.0 0.00 0.01 0.01 55 1014.7
20260502233006 74 135 1.0 6.0 0.00 0.01 0.01 55 1014.7
20260502232504 74 223 2.0 7.0 0.00 0.01 0.01 51 1014.8
20260502232005 74 303 3.0 7.0 0.00 0.01 0.01 50 1014.8
20260502231505 73 223 2.0 6.0 0.00 0.01 0.01 50 1014.8
20260502231005 73 269 2.0 9.0 0.00 0.01 0.01 50 1014.8
20260502225506 73 46 3.0 5.0 0.00 0.01 0.01 58 1015.0
20260502225005 73 283 3.0 5.0 0.00 0.01 0.01 49 1015.2
20260502224505 73 241 2.0 6.0 0.00 0.01 0.01 52 1015.3
20260502223503 73 1 4.0 7.0 0.00 0.01 0.01 53 1015.3
20260502223005 72 331 3.0 7.0 0.00 0.01 0.01 53 1015.4
20260502222504 72 276 4.0 7.0 0.00 0.01 0.01 52 1015.5
20260502222005 72 296 4.0 7.0 0.00 0.01 0.01 52 1015.4
20260502221505 71 299 2.0 8.0 0.00 0.01 0.01 55 1015.6
20260502221005 71 274 3.0 10.0 0.00 0.01 0.01 56 1015.6
20260502220008 71 227 2.0 7.0 0.00 0.01 0.01 56 1015.7
20260502215505 71 269 3.0 7.0 0.00 0.01 0.01 57 1015.7
20260502215005 71 290 3.0 7.0 0.00 0.01 0.01 57 1015.9
20260502214005 72 286 3.0 7.0 0.00 0.01 0.01 55 1015.9
20260502213007 71 223 3.0 5.0 0.00 0.01 0.01 54 1016.0
20260502212505 71 319 3.0 5.0 0.00 0.01 0.01 54 1016.2
20260502212005 70 344 2.0 6.0 0.00 0.01 0.01 54 1016.2
20260502211005 70 252 2.0 8.0 0.00 0.01 0.01 55 1016.2
20260502210505 69 307 2.0 9.0 0.00 0.01 0.01 54 1016.3
20260502210005 69 277 4.0 9.0 0.00 0.01 0.01 54 1016.5
20260502205005 69 354 4.0 8.0 0.00 0.01 0.01 58 1016.5
20260502204505 68 277 3.0 8.0 0.00 0.01 0.01 61 1016.6
20260502204005 68 279 3.0 11.0 0.00 0.01 0.01 61 1016.6
20260502203504 68 301 4.0 11.0 0.00 0.01 0.01 59 1016.7
20260502202505 69 328 2.0 11.0 0.00 0.01 0.01 65 1016.6
20260502202004 69 275 5.0 11.0 0.00 0.01 0.01 62 1016.7
20260502201504 69 6 2.0 7.0 0.00 0.01 0.01 63 1016.6
20260502200505 69 35 3.0 9.0 0.00 0.01 0.01 64 1016.6
20260502200006 69 241 3.0 9.0 0.00 0.01 0.01 66 1016.7
20260502195505 68 360 3.0 7.0 0.00 0.01 0.01 66 1016.8
20260502195006 68 295 2.0 8.0 0.00 0.01 0.01 70 1016.8
20260502194504 68 241 3.0 8.0 0.00 0.01 0.01 68 1016.8
20260502193506 68 157 2.0 8.0 0.00 0.01 0.01 68 1016.8
20260502193005 67 206 3.0 8.0 0.00 0.01 0.01 69 1016.8
20260502192505 68 188 3.0 8.0 0.00 0.01 0.01 70 1016.9
20260502192005 68 223 3.0 10.0 0.00 0.01 0.01 69 1016.8
20260502191505 68 228 2.0 10.0 0.00 0.01 0.01 69 1016.8
20260502191004 69 207 3.0 8.0 0.00 0.01 0.01 68 1016.9
20260502190007 70 25 2.0 4.0 0.00 0.01 0.01 59 1016.9
20260502185504 69 223 2.0 4.0 0.00 0.01 0.01 58 1016.9
20260502185005 69 237 1.0 6.0 0.00 0.01 0.01 56 1017.0
20260502184505 69 331 1.0 6.0 0.00 0.01 0.01 57 1017.0
20260502184004 68 335 3.0 5.0 0.00 0.01 0.01 57 1017.0
20260502183505 68 1 3.0 5.0 0.00 0.01 0.01 60 1017.0
20260502183007 68 336 2.0 4.0 0.00 0.01 0.01 62 1017.0
20260502181505 67 13 2.0 5.0 0.00 0.01 0.01 64 1017.1
20260502181006 66 331 2.0 6.0 0.00 0.01 0.01 63 1017.1
20260502180506 66 9 2.0 6.0 0.00 0.01 0.01 67 1017.2
20260502170504 62 46 1.0 6.0 0.00 0.01 0.01 74 1017.4
20260502164001 61 1 2.0 4.0 0.00 0.01 0.01 78 1017.5
20260502163504 61 20 1.0 3.0 0.00 0.01 0.01 82 1017.6
20260502163006 60 67 2.0 3.0 0.00 0.01 0.01 83 1017.6
20260502162504 60 72 1.0 3.0 0.00 0.01 0.01 82 1017.6
20260502162004 60 63 2.0 4.0 0.00 0.01 0.01 81 1017.7
20260502161505 60 314 2.0 4.0 0.00 0.01 0.01 82 1017.7
20260502161005 59 314 2.0 7.0 0.00 0.01 0.01 86 1017.7
20260502160504 59 340 3.0 7.0 0.00 0.01 0.01 84 1017.7
20260502152004 56 321 1.0 2.0 0.00 0.01 0.01 89 1017.9
20260502151505 56 20 1.0 2.0 0.00 0.01 0.01 89 1017.9
20260502151004 55 223 1.0 2.0 0.00 0.01 0.01 89 1017.8
20260502150504 56 63 1.0 2.0 0.00 0.01 0.01 90 1017.8
20260502130503 54 314 0.0 2.0 0.01 0.01 0.01 90 1016.9
20260502123007 54 1 1.0 3.0 0.00 0.00 0.00 89 1016.8
20260502122505 54 89 1.0 3.0 0.00 0.00 0.00 89 1016.8
20260502122004 54 129 1.0 5.0 0.00 0.00 0.00 89 1016.8
20260502115504 54 126 2.0 5.0 0.00 0.00 0.00 88 1016.7
20260502113500 54 117 2.0 5.0 0.00 0.00 0.00 87 1016.5
20260502112505 55 145 2.0 5.0 0.00 0.00 0.00 86 1016.4
20260502112005 55 130 2.0 5.0 0.00 0.00 0.00 87 1016.5
20260502111505 55 101 2.0 3.0 0.00 0.00 0.00 86 1016.4
20260502111004 55 117 2.0 3.0 0.00 0.00 0.00 86 1016.3
20260502110504 55 76 1.0 3.0 0.00 0.00 0.00 86 1016.3
20260502110007 55 122 2.0 3.0 0.00 0.00 0.00 86 1016.2
20260502105000 55 135 1.0 3.0 0.00 0.00 0.00 86 1016.2
20260502104502 55 117 2.0 3.0 0.00 0.00 0.00 85 1016.2
20260502104004 55 108 1.0 3.0 0.00 0.00 0.00 85 1016.2
20260502103504 55 127 2.0 3.0 0.00 0.00 0.00 84 1016.2
20260502103005 55 46 1.0 3.0 0.00 0.00 0.00 84 1016.3
20260502102501 55 216 1.0 3.0 0.00 0.00 0.00 83 1016.3
20260502102004 55 148 2.0 3.0 0.00 0.00 0.00 83 1016.3
20260502101504 56 117 1.0 3.0 0.00 0.00 0.00 82 1016.2
20260502101000 56 206 1.0 5.0 0.00 0.00 0.00 82 1016.2
20260502100502 56 142 2.0 5.0 0.00 0.00 0.00 82 1016.1
20260502091005 56 152 1.0 3.0 0.00 0.00 0.00 82 1016.1
20260502090459 56 76 1.0 3.0 0.00 0.00 0.00 82 1016.0
20260502071505 54 63 1.0 1.0 0.00 0.00 0.00 86 1016.0
20260502071004 54 46 1.0 1.0 0.00 0.00 0.00 86 1016.1
20260502070504 54 314 0.0 1.0 0.00 0.00 0.00 86 1016.1
20260502070009 54 89 0.0 1.0 0.00 0.00 0.00 86 1016.0
20260502065504 54 1 1.0 2.0 0.00 0.00 0.00 86 1016.0
20260502065005 54 46 0.0 2.0 0.00 0.00 0.00 85 1016.1
20260502064005 54 331 1.0 2.0 0.00 0.00 0.00 86 1016.0
20260502063504 54 269 1.0 1.0 0.00 0.00 0.00 86 1015.8
20260502063006 54 314 0.0 1.0 0.00 0.00 0.00 86 1015.8
20260502062504 54 135 0.0 2.0 0.00 0.00 0.00 86 1015.9
20260502061505 55 46 1.0 2.0 0.00 0.00 0.00 85 1016.0
20260502061005 54 46 1.0 2.0 0.00 0.00 0.00 85 1015.9
20260502060504 54 269 0.0 2.0 0.00 0.00 0.00 85 1015.9
20260502055506 55 117 0.0 1.0 0.00 0.00 0.00 85 1015.7
20260502055005 55 331 0.0 1.0 0.00 0.00 0.00 85 1015.6
20260502053505 56 1 2.0 2.0 0.00 0.00 0.00 83 1015.8
20260502052504 56 142 1.0 2.0 0.00 0.00 0.00 82 1016.0
20260502052004 56 28 0.0 2.0 0.00 0.00 0.00 82 1016.0
20260502051005 56 46 1.0 2.0 0.00 0.00 0.00 82 1016.1
20260502050504 56 124 1.0 4.0 0.00 0.00 0.00 83 1016.1
20260502045505 56 127 1.0 3.0 0.00 0.00 0.00 84 1016.1
20260502045005 56 148 1.0 4.0 0.00 0.00 0.00 84 1016.1
20260502044506 56 122 2.0 4.0 0.00 0.00 0.00 85 1016.2
20260502044005 56 152 1.0 3.0 0.00 0.00 0.00 85 1015.9
20260502043504 56 89 1.0 2.0 0.00 0.00 0.00 85 1015.7
20260502043006 56 117 1.0 2.0 0.00 0.00 0.00 85 1015.7
20260502042505 56 89 1.0 2.0 0.00 0.00 0.00 85 1015.7
20260502042005 56 89 0.0 2.0 0.00 0.00 0.00 85 1015.6
20260502041505 56 269 0.0 2.0 0.00 0.00 0.00 84 1015.6
20260502041006 56 89 0.0 2.0 0.00 0.00 0.00 84 1015.6
20260502040505 56 269 0.0 2.0 0.00 0.00 0.00 83 1015.5
20260502035006 57 46 0.0 2.0 0.00 0.00 0.00 82 1015.2
20260502034505 57 105 1.0 2.0 0.00 0.00 0.00 81 1015.2
20260502034006 58 1 1.0 3.0 0.00 0.00 0.00 80 1015.2
20260502033504 58 117 1.0 3.0 0.00 0.00 0.00 80 1015.2
20260502032505 59 178 1.0 2.0 0.00 0.00 0.00 78 1015.0
20260502032005 59 178 1.0 2.0 0.00 0.00 0.00 78 1014.9
20260502030504 59 269 1.0 2.0 0.00 0.00 0.00 76 1014.8